Powrót do katalogu

ATLAS 5 CENTAUR DEB

AktywnyHEO
NORAD 43965·DEBRIS·🇺🇸 United States

Wystrzelony Sep 17, 2014 z Cape Canaveral Space Force Station

Loading…

Następne Przeloty (najbliższe 24 godziny)

TLE

ŚwieżeSource: Space-Track

Epoka: Sep 10, 2026, 09:15 UTC

1 43965U 14055U   26253.38577907 -.00000131  00000-0  00000+0 0  9991
2 43965  20.7682 116.1801 4845884 218.3979  94.5575  1.89965974 55656

Śledź ATLAS 5 CENTAUR DEB w czasie rzeczywistym z AllMySat

Download on the App Store